,,,PA_Meas_PMT16A,,PR_Meas_QMR101_102,,RH_Meas_QMH101,,SR_Meas_QMS101,,TA_Meas_QMH101,,GenWind,,GenWind,
date,time,status,PA,status,PR,status,RH,status,SR,status,TA,status,DirAvg,status,SpdAvg,
2008-04-19, 00:00:04,VALID,1002.08,VALID,0,VALID,86.2521,VALID,0,VALID,25.7499,VALID,279,VALID,0.811719,
2008-04-19, 00:01:04,VALID,1002.06,VALID,0,VALID,86.069,VALID,0,VALID,25.7908,VALID,288,VALID,1.0082,
2008-04-19, 00:02:04,VALID,1002.03,VALID,0,VALID,85.9775,VALID,0,VALID,25.8103,VALID,292,VALID,0.246094,
2008-04-19, 00:03:04,VALID,1002.01,VALID,0,VALID,86.0156,VALID,0,VALID,25.8493,VALID,290,VALID,0.2375,
2008-04-19, 00:04:04,VALID,1002.02,VALID,0,VALID,85.947,VALID,0,VALID,25.8687,VALID,286,VALID,0.476953,
2008-04-19, 00:05:04,VALID,1001.97,VALID,0,VALID,86.0233,VALID,0,VALID,25.8687,VALID,347,VALID,0.603906,
2008-04-19, 00:06:04,VALID,1001.96,VALID,0,VALID,86.0385,VALID,0,VALID,25.8493,VALID,345,VALID,0.766016,
2008-04-19, 00:07:04,VALID,1001.95,VALID,0,VALID,86.3589,VALID,0,VALID,25.8298,VALID,350,VALID,0.705859,
2008-04-19, 00:08:04,VALID,1001.94,VALID,0,VALID,86.4047,VALID,0,VALID,25.7908,VALID,346,VALID,0.521484,
2008-04-19, 00:09:04,VALID,1001.94,VALID,0,VALID,86.6488,VALID,0.100563,VALID,25.7694,VALID,346,VALID,0,
2008-04-19, 00:10:04,VALID,1001.99,VALID,0,VALID,86.6717,VALID,0,VALID,25.7499,VALID,333,VALID,0.221484,
2008-04-19, 00:11:04,VALID,1002,VALID,0,VALID,86.748,VALID,0,VALID,25.7304,VALID,329,VALID,0.275781,
2008-04-19, 00:12:04,VALID,1002.08,VALID,0,VALID,86.7327,VALID,0,VALID,25.709,VALID,326,VALID,0.400781,
2008-04-19, 00:13:04,VALID,1002.14,VALID,0,VALID,86.7327,VALID,0.100563,VALID,25.7109,VALID,332,VALID,0.774219,
2008-04-19, 00:14:04,VALID,1002.18,VALID,0,VALID,86.954,VALID,0.100563,VALID,25.6895,VALID,322,VALID,0.432813,
2008-04-19, 00:15:04,VALID,1002.24,VALID,0,VALID,87.1294,VALID,0.100563,VALID,25.7109,VALID,299,VALID,0.00234375,
2008-04-19, 00:16:04,VALID,1002.28,VALID,0,VALID,86.9998,VALID,0.100563,VALID,25.6895,VALID,297,VALID,0.382031,
2008-04-19, 00:17:04,VALID,1002.31,VALID,0,VALID,86.7861,VALID,0.100563,VALID,25.6895,VALID,314,VALID,0.79375,
2008-04-19, 00:18:04,VALID,1002.34,VALID,0,VALID,87.0684,VALID,0,VALID,25.7109,VALID,284,VALID,0.241016,
2008-04-19, 00:19:04,VALID,1002.35,VALID,0,VALID,87.0303,VALID,0.100563,VALID,25.6895,VALID,263,VALID,0.596484,
2008-04-19, 00:20:04,VALID,1002.32,VALID,0,VALID,87.0226,VALID,0,VALID,25.67,VALID,326,VALID,0.408984,
2008-04-19, 00:21:04,VALID,1002.31,VALID,0,VALID,87.2286,VALID,0.100563,VALID,25.6915,VALID,294,VALID,0.237891,
2008-04-19, 00:22:04,VALID,1002.29,VALID,0,VALID,87.0455,VALID,0.100563,VALID,25.672,VALID,290,VALID,0.513672,
2008-04-19, 00:23:04,VALID,1002.27,VALID,0,VALID,87.3659,VALID,0.100563,VALID,25.672,VALID,292,VALID,0.00117188,
2008-04-19, 00:24:04,VALID,1002.21,VALID,0,VALID,87.3888,VALID,0,VALID,25.6545,VALID,302,VALID,0.60625,
2008-04-19, 00:25:04,VALID,1002.16,VALID,0,VALID,87.8694,VALID,0,VALID,25.6545,VALID,290,VALID,0.146484,
2008-04-19, 00:26:04,VALID,1002.16,VALID,0,VALID,87.7016,VALID,0,VALID,25.6136,VALID,351,VALID,0.472656,
2008-04-19, 00:27:04,VALID,1002.11,VALID,0,VALID,87.7245,VALID,0,VALID,25.5941,VALID,359,VALID,0.429688,
2008-04-19, 00:28:04,VALID,1002.1,VALID,0,VALID,87.8694,VALID,0,VALID,25.5941,VALID,359,VALID,0.0347656,
2008-04-19, 00:29:04,VALID,1002.13,VALID,0,VALID,88.0907,VALID,0,VALID,25.5746,VALID,302,VALID,0.399219,
2008-04-19, 00:30:04,VALID,1002.14,VALID,0,VALID,88.0602,VALID,0,VALID,25.6155,VALID,299,VALID,0.321484,
2008-04-19, 00:31:04,VALID,1002.12,VALID,0,VALID,88.0678,VALID,0,VALID,25.5746,VALID,298,VALID,0.2,
2008-04-19, 00:32:04,VALID,1002.2,VALID,0,VALID,88.1136,VALID,0,VALID,25.596,VALID,235,VALID,0.401563,
2008-04-19, 00:33:04,VALID,1002.28,VALID,0,VALID,88.3424,VALID,0,VALID,25.5765,VALID,236,VALID,0.847266,
2008-04-19, 00:34:04,VALID,1002.38,VALID,0,VALID,88.5255,VALID,0,VALID,25.5162,VALID,220,VALID,1.42344,
2008-04-19, 00:35:04,VALID,1002.44,VALID,0,VALID,88.8383,VALID,0,VALID,25.4986,VALID,213,VALID,1.28203,
2008-04-19, 00:36:04,VALID,1002.49,VALID,0,VALID,89.3952,VALID,0,VALID,25.4383,VALID,198,VALID,0.763672,
2008-04-19, 00:37:04,VALID,1002.49,VALID,0,VALID,89.1587,VALID,0,VALID,25.4012,VALID,176,VALID,0.863672,
2008-04-19, 00:38:04,VALID,1002.42,VALID,0,VALID,89.2274,VALID,0,VALID,25.3623,VALID,206,VALID,2.20547,
2008-04-19, 00:39:04,VALID,1002.47,VALID,0,VALID,89.4715,VALID,0,VALID,25.3409,VALID,225,VALID,1.08594,
2008-04-19, 00:40:04,VALID,1002.44,VALID,0,VALID,89.296,VALID,0,VALID,25.3428,VALID,276,VALID,0.526953,
2008-04-19, 00:41:04,VALID,1002.42,VALID,0,VALID,89.4868,VALID,0,VALID,25.3428,VALID,200,VALID,1.53164,
2008-04-19, 00:42:04,VALID,1002.4,VALID,0,VALID,90.0666,VALID,0,VALID,25.3214,VALID,254,VALID,1.22305,
2008-04-19, 00:43:04,VALID,1002.41,VALID,0,VALID,90.4556,VALID,0,VALID,25.3604,VALID,217,VALID,1.00898,
2008-04-19, 00:44:04,VALID,1002.42,VALID,0,VALID,90.7837,VALID,0,VALID,25.3604,VALID,208,VALID,1.19258,
2008-04-19, 00:45:04,VALID,1002.39,VALID,0,VALID,91.2872,VALID,0,VALID,25.3798,VALID,146,VALID,1.17148,
2008-04-19, 00:46:04,VALID,1002.41,VALID,0,VALID,91.6457,VALID,0,VALID,25.3993,VALID,200,VALID,1.34102,
2008-04-19, 00:47:04,VALID,1002.4,VALID,0,VALID,91.9509,VALID,0,VALID,25.3993,VALID,199,VALID,2.21719,
2008-04-19, 00:48:04,VALID,1002.4,VALID,0.5,VALID,92.1645,VALID,0,VALID,25.3019,VALID,196,VALID,1.46289,
2008-04-19, 00:49:04,VALID,1002.38,VALID,0,VALID,92.5841,VALID,0,VALID,25.2046,VALID,207,VALID,1.90469,
2008-04-19, 00:50:04,VALID,1002.36,VALID,0,VALID,92.8892,VALID,0,VALID,25.1461,VALID,227,VALID,1.67578,
2008-04-19, 00:51:04,VALID,1002.35,VALID,0,VALID,92.9808,VALID,0,VALID,25.0682,VALID,94,VALID,0.399219,
2008-04-19, 00:52:04,VALID,1002.38,VALID,0,VALID,92.7977,VALID,0,VALID,24.9709,VALID,211,VALID,1.65703,
2008-04-19, 00:53:04,VALID,1002.34,VALID,0,VALID,92.9121,VALID,0,VALID,24.9338,VALID,211,VALID,0.79375,
2008-04-19, 00:54:04,VALID,1002.3,VALID,0,VALID,93.1715,VALID,0,VALID,24.8346,VALID,209,VALID,0.449609,
2008-04-19, 00:55:04,VALID,1002.27,VALID,0,VALID,93.3394,VALID,0,VALID,24.7761,VALID,176,VALID,0.409375,
2008-04-19, 00:56:04,VALID,1002.27,VALID,0,VALID,93.4156,VALID,0,VALID,24.7372,VALID,200,VALID,1.3793,
2008-04-19, 00:57:04,VALID,1002.29,VALID,0.5,VALID,93.8123,VALID,0,VALID,24.7177,VALID,295,VALID,0.410156,
2008-04-19, 00:58:04,VALID,1002.27,VALID,0,VALID,93.8276,VALID,0,VALID,24.6788,VALID,205,VALID,0.429297,
2008-04-19, 00:59:04,VALID,1002.31,VALID,0,VALID,94.0336,VALID,0,VALID,24.6593,VALID,275,VALID,1.09219,
2008-04-19, 01:00:04,VALID,1002.31,VALID,0,VALID,94.0641,VALID,0,VALID,24.6398,VALID,305,VALID,1.06133,
2008-04-19, 01:01:04,VALID,1002.29,VALID,0,VALID,94.1862,VALID,0,VALID,24.6398,VALID,201,VALID,0.275781,
2008-04-19, 01:02:04,VALID,1002.27,VALID,0,VALID,94.293,VALID,0,VALID,24.6398,VALID,278,VALID,0.594531,
2008-04-19, 01:03:04,VALID,1002.29,VALID,0,VALID,94.4379,VALID,0.100563,VALID,24.6204,VALID,302,VALID,1.01016,
2008-04-19, 01:04:04,VALID,1002.28,VALID,0,VALID,94.4913,VALID,0,VALID,24.6185,VALID,276,VALID,0.258984,
2008-04-19, 01:05:04,VALID,1002.29,VALID,0,VALID,94.5905,VALID,0,VALID,24.6398,VALID,276,VALID,0.00351562,
2008-04-19, 01:06:04,VALID,1002.31,VALID,0,VALID,94.7278,VALID,0,VALID,24.6788,VALID,283,VALID,0.431641,
2008-04-19, 01:07:04,VALID,1002.31,VALID,0,VALID,94.7507,VALID,0.100563,VALID,24.6769,VALID,302,VALID,0.842969,
2008-04-19, 01:08:04,VALID,1002.28,VALID,0,VALID,94.6744,VALID,0,VALID,24.6769,VALID,305,VALID,0.300781,
2008-04-19, 01:09:04,VALID,1002.27,VALID,0,VALID,94.6897,VALID,0,VALID,24.6788,VALID,329,VALID,0.473828,
2008-04-19, 01:10:04,VALID,1002.26,VALID,0,VALID,94.4303,VALID,0,VALID,24.6788,VALID,290,VALID,0.796094,
2008-04-19, 01:11:04,VALID,1002.24,VALID,0,VALID,94.4455,VALID,0,VALID,24.6983,VALID,300,VALID,0.271484,
2008-04-19, 01:12:04,VALID,1002.22,VALID,0,VALID,94.2548,VALID,0,VALID,24.6983,VALID,322,VALID,0.769141,
2008-04-19, 01:13:04,VALID,1002.23,VALID,0,VALID,94.2777,VALID,0,VALID,24.6983,VALID,335,VALID,0.334766,
2008-04-19, 01:14:04,VALID,1002.24,VALID,0,VALID,94.3387,VALID,0,VALID,24.6983,VALID,274,VALID,0.425,
2008-04-19, 01:15:04,VALID,1002.22,VALID,0,VALID,94.3235,VALID,0,VALID,24.6983,VALID,289,VALID,0.238672,
2008-04-19, 01:16:04,VALID,1002.24,VALID,0,VALID,94.3845,VALID,0,VALID,24.6769,VALID,295,VALID,0.502344,
2008-04-19, 01:17:04,VALID,1002.23,VALID,0,VALID,94.4532,VALID,0.100563,VALID,24.6769,VALID,295,VALID,0.117969,
2008-04-19, 01:18:04,VALID,1002.21,VALID,0,VALID,94.4837,VALID,0,VALID,24.7196,VALID,290,VALID,0.567969,
2008-04-19, 01:19:04,VALID,1002.18,VALID,0,VALID,94.5676,VALID,0,VALID,24.6983,VALID,290,VALID,0,
2008-04-19, 01:20:04,VALID,1002.17,VALID,0,VALID,94.5447,VALID,0,VALID,24.6788,VALID,290,VALID,0.08125,
2008-04-19, 01:21:04,VALID,1002.15,VALID,0,VALID,94.6515,VALID,0.100563,VALID,24.6983,VALID,290,VALID,0.0898438,
2008-04-19, 01:22:04,VALID,1002.12,VALID,0,VALID,94.3998,VALID,0,VALID,24.6788,VALID,355,VALID,0.492188,
2008-04-19, 01:23:04,VALID,1002.12,VALID,0,VALID,94.3845,VALID,0,VALID,24.6574,VALID,357,VALID,0.675781,
2008-04-19, 01:24:04,VALID,1002.08,VALID,0,VALID,94.4532,VALID,0.100563,VALID,24.6983,VALID,357,VALID,0.552734,
2008-04-19, 01:25:04,VALID,1002.07,VALID,0,VALID,94.56,VALID,0,VALID,24.6983,VALID,357,VALID,0.196484,
2008-04-19, 01:26:04,VALID,1002.03,VALID,0,VALID,94.5829,VALID,0,VALID,24.6983,VALID,357,VALID,0.317578,
2008-04-19, 01:27:04,VALID,1002,VALID,0,VALID,94.5905,VALID,0,VALID,24.6788,VALID,357,VALID,0.20625,
2008-04-19, 01:28:04,VALID,1001.98,VALID,0,VALID,94.7507,VALID,0,VALID,24.6788,VALID,357,VALID,0.0636719,
2008-04-19, 01:29:04,VALID,1001.98,VALID,0,VALID,94.7812,VALID,0,VALID,24.6983,VALID,357,VALID,0.320313,
2008-04-19, 01:30:04,VALID,1001.94,VALID,0,VALID,94.8422,VALID,0,VALID,24.6769,VALID,356,VALID,0.0140625,
2008-04-19, 01:31:04,VALID,1001.95,VALID,0,VALID,94.766,VALID,0.100563,VALID,24.6769,VALID,339,VALID,0.441016,
2008-04-19, 01:32:04,VALID,1001.94,VALID,0,VALID,94.827,VALID,0,VALID,24.6983,VALID,341,VALID,0.229687,
2008-04-19, 01:33:04,VALID,1001.96,VALID,0,VALID,94.8499,VALID,0,VALID,24.7177,VALID,326,VALID,0.291797,
2008-04-19, 01:34:04,VALID,1001.92,VALID,0,VALID,94.7736,VALID,0,VALID,24.7177,VALID,305,VALID,0.581641,
2008-04-19, 01:35:04,VALID,1001.98,VALID,0,VALID,94.7583,VALID,0.100563,VALID,24.6964,VALID,299,VALID,0.629297,
2008-04-19, 01:36:04,VALID,1001.96,VALID,0,VALID,94.766,VALID,0.100563,VALID,24.6964,VALID,287,VALID,0.153906,
2008-04-19, 01:37:04,VALID,1001.94,VALID,0,VALID,94.7507,VALID,0,VALID,24.7177,VALID,287,VALID,0.374219,
2008-04-19, 01:38:04,VALID,1001.93,VALID,0,VALID,94.7125,VALID,0,VALID,24.6983,VALID,322,VALID,0.384766,
2008-04-19, 01:39:04,VALID,1001.95,VALID,0,VALID,94.6668,VALID,0.100563,VALID,24.7177,VALID,339,VALID,0.296094,
2008-04-19, 01:40:04,VALID,1001.95,VALID,0,VALID,94.682,VALID,0,VALID,24.7372,VALID,327,VALID,0.560156,
2008-04-19, 01:41:04,VALID,1001.92,VALID,0,VALID,94.5371,VALID,0,VALID,24.7372,VALID,293,VALID,0.791406,
2008-04-19, 01:42:04,VALID,1001.9,VALID,0,VALID,94.6744,VALID,0.100563,VALID,24.7353,VALID,322,VALID,0.308203,
2008-04-19, 01:43:04,VALID,1001.87,VALID,0,VALID,94.621,VALID,0,VALID,24.7567,VALID,334,VALID,0.6375,
2008-04-19, 01:44:04,VALID,1001.84,VALID,0,VALID,94.5218,VALID,0,VALID,24.7353,VALID,351,VALID,0.848437,
2008-04-19, 01:45:04,VALID,1001.79,VALID,0,VALID,94.4455,VALID,0.100563,VALID,24.7353,VALID,276,VALID,0.360547,
2008-04-19, 01:46:04,VALID,1001.78,VALID,0,VALID,94.4074,VALID,0,VALID,24.7567,VALID,349,VALID,0.412891,
2008-04-19, 01:47:04,VALID,1001.77,VALID,0,VALID,94.293,VALID,0.100563,VALID,24.7372,VALID,295,VALID,0.716797,
2008-04-19, 01:48:04,VALID,1001.74,VALID,0,VALID,94.1404,VALID,0,VALID,24.7372,VALID,300,VALID,1.03203,
2008-04-19, 01:49:04,VALID,1001.75,VALID,0,VALID,93.9573,VALID,0,VALID,24.7177,VALID,296,VALID,1.27539,
2008-04-19, 01:50:04,VALID,1001.7,VALID,0,VALID,93.8963,VALID,0,VALID,24.6769,VALID,308,VALID,0.7625,
2008-04-19, 01:51:04,VALID,1001.68,VALID,0,VALID,93.9039,VALID,0,VALID,24.7177,VALID,301,VALID,0.351563,
2008-04-19, 01:52:04,VALID,1001.61,VALID,0,VALID,93.8657,VALID,0,VALID,24.6964,VALID,284,VALID,0.284766,
2008-04-19, 01:53:04,VALID,1001.59,VALID,0,VALID,93.7895,VALID,0,VALID,24.6983,VALID,334,VALID,0.505078,
2008-04-19, 01:54:04,VALID,1001.53,VALID,0,VALID,93.7971,VALID,0,VALID,24.6983,VALID,354,VALID,0.416406,
2008-04-19, 01:55:04,VALID,1001.52,VALID,0,VALID,93.6292,VALID,0,VALID,24.6593,VALID,327,VALID,0.892969,
2008-04-19, 01:56:04,VALID,1001.51,VALID,0,VALID,93.6674,VALID,0,VALID,24.6398,VALID,345,VALID,0.695703,
2008-04-19, 01:57:04,VALID,1001.47,VALID,0,VALID,93.6979,VALID,0.100563,VALID,24.6398,VALID,351,VALID,0.589453,
2008-04-19, 01:58:04,VALID,1001.43,VALID,0,VALID,93.7513,VALID,0.100563,VALID,24.6185,VALID,351,VALID,0.384766,
2008-04-19, 01:59:04,VALID,1001.37,VALID,0,VALID,93.7437,VALID,0.100563,VALID,24.6204,VALID,349,VALID,0.424609,
2008-04-19, 02:00:04,VALID,1001.4,VALID,0,VALID,93.7589,VALID,0.100563,VALID,24.6009,VALID,354,VALID,0.616016,
2008-04-19, 02:01:04,VALID,1001.38,VALID,0,VALID,93.82,VALID,0,VALID,24.562,VALID,350,VALID,0.524609,
2008-04-19, 02:02:04,VALID,1001.38,VALID,0,VALID,93.9573,VALID,0,VALID,24.562,VALID,342,VALID,0.112891,
2008-04-19, 02:03:04,VALID,1001.38,VALID,0,VALID,94.0717,VALID,0,VALID,24.5406,VALID,345,VALID,0.425391,
2008-04-19, 02:04:04,VALID,1001.35,VALID,0,VALID,94.1709,VALID,0,VALID,24.562,VALID,344,VALID,0.179688,
2008-04-19, 02:05:04,VALID,1001.35,VALID,0,VALID,94.209,VALID,0,VALID,24.562,VALID,314,VALID,0.120703,
2008-04-19, 02:06:04,VALID,1001.32,VALID,0,VALID,94.1938,VALID,0,VALID,24.5425,VALID,290,VALID,0.388281,
2008-04-19, 02:07:04,VALID,1001.34,VALID,0,VALID,94.2243,VALID,0,VALID,24.5425,VALID,307,VALID,0.0234375,
2008-04-19, 02:08:04,VALID,1001.33,VALID,0,VALID,94.1709,VALID,0,VALID,24.5443,VALID,293,VALID,0.0539063,
2008-04-19, 02:09:04,VALID,1001.29,VALID,0,VALID,94.087,VALID,0,VALID,24.523,VALID,279,VALID,0.522656,
2008-04-19, 02:10:04,VALID,1001.27,VALID,0,VALID,94.148,VALID,0.100563,VALID,24.523,VALID,280,VALID,0.363672,
2008-04-19, 02:11:04,VALID,1001.24,VALID,0,VALID,94.1328,VALID,0,VALID,24.4841,VALID,276,VALID,0.396484,
2008-04-19, 02:12:04,VALID,1001.27,VALID,0,VALID,94.2548,VALID,0,VALID,24.4841,VALID,278,VALID,0.48125,
2008-04-19, 02:13:04,VALID,1001.25,VALID,0,VALID,94.354,VALID,0,VALID,24.5035,VALID,278,VALID,0.0429688,
2008-04-19, 02:14:04,VALID,1001.24,VALID,0,VALID,94.2472,VALID,0,VALID,24.4646,VALID,316,VALID,0.427734,
2008-04-19, 02:15:04,VALID,1001.2,VALID,0,VALID,94.3311,VALID,0,VALID,24.4646,VALID,309,VALID,0.432422,
2008-04-19, 02:16:04,VALID,1001.18,VALID,0.5,VALID,94.4303,VALID,0,VALID,24.4646,VALID,307,VALID,0.11875,
2008-04-19, 02:17:04,VALID,1001.16,VALID,0,VALID,94.4913,VALID,0,VALID,24.4646,VALID,335,VALID,0.349609,
2008-04-19, 02:18:04,VALID,1001.14,VALID,0,VALID,94.5447,VALID,0,VALID,24.4646,VALID,341,VALID,0.146875,
2008-04-19, 02:19:04,VALID,1001.14,VALID,0,VALID,94.5523,VALID,0,VALID,24.4646,VALID,352,VALID,0.59375,
2008-04-19, 02:20:04,VALID,1001.11,VALID,0,VALID,94.5295,VALID,0,VALID,24.4451,VALID,5,VALID,0.75,
2008-04-19, 02:21:04,VALID,1001.08,VALID,0,VALID,94.6057,VALID,0,VALID,24.4257,VALID,356,VALID,0.640625,
2008-04-19, 02:22:04,VALID,1001.1,VALID,0,VALID,94.6744,VALID,0,VALID,24.4062,VALID,353,VALID,0.497656,
2008-04-19, 02:23:04,VALID,1001.09,VALID,0,VALID,94.7888,VALID,0,VALID,24.4062,VALID,356,VALID,0.124609,
2008-04-19, 02:24:04,VALID,1001.1,VALID,0,VALID,94.8804,VALID,0,VALID,24.4275,VALID,305,VALID,0.449609,
2008-04-19, 02:25:04,VALID,1001.08,VALID,0,VALID,94.8117,VALID,0,VALID,24.4062,VALID,306,VALID,0.672656,
2008-04-19, 02:26:04,VALID,1001.08,VALID,0,VALID,94.9414,VALID,0,VALID,24.4062,VALID,299,VALID,0.105859,
2008-04-19, 02:27:04,VALID,1001.1,VALID,0,VALID,94.9109,VALID,0,VALID,24.4062,VALID,296,VALID,0.453906,
2008-04-19, 02:28:04,VALID,1001.09,VALID,0,VALID,94.9872,VALID,0,VALID,24.4062,VALID,295,VALID,0.240625,
2008-04-19, 02:29:04,VALID,1001.11,VALID,0,VALID,94.9414,VALID,0,VALID,24.4062,VALID,296,VALID,0.933203,
2008-04-19, 02:30:04,VALID,1001.12,VALID,0,VALID,94.9948,VALID,0,VALID,24.4062,VALID,307,VALID,0.616406,
2008-04-19, 02:31:04,VALID,1001.12,VALID,0,VALID,95.0177,VALID,0,VALID,24.4062,VALID,288,VALID,1.17969,
2008-04-19, 02:32:04,VALID,1001.07,VALID,0,VALID,94.8804,VALID,0,VALID,24.3867,VALID,297,VALID,1.55,
2008-04-19, 02:33:04,VALID,1001.08,VALID,0.5,VALID,94.888,VALID,0,VALID,24.408,VALID,321,VALID,1.29062,
2008-04-19, 02:34:04,VALID,1001.07,VALID,0,VALID,94.7431,VALID,0,VALID,24.3867,VALID,291,VALID,2.04883,
2008-04-19, 02:35:04,VALID,1001.13,VALID,0,VALID,94.827,VALID,0,VALID,24.408,VALID,298,VALID,0.380078,
2008-04-19, 02:36:04,VALID,1001.1,VALID,0,VALID,94.7202,VALID,0,VALID,24.3673,VALID,300,VALID,1.72812,
2008-04-19, 02:37:04,VALID,1001.12,VALID,0,VALID,94.5447,VALID,0,VALID,24.3478,VALID,297,VALID,1.87227,
2008-04-19, 02:38:04,VALID,1001.08,VALID,0,VALID,94.7125,VALID,0,VALID,24.3886,VALID,318,VALID,0.571094,
2008-04-19, 02:39:04,VALID,1001.1,VALID,0,VALID,94.7125,VALID,0,VALID,24.3673,VALID,332,VALID,0.872656,
2008-04-19, 02:40:04,VALID,1001.09,VALID,0,VALID,94.766,VALID,0,VALID,24.307,VALID,320,VALID,0.529688,
2008-04-19, 02:41:04,VALID,1001.09,VALID,0,VALID,94.7965,VALID,0,VALID,24.3283,VALID,300,VALID,0.258984,
2008-04-19, 02:42:04,VALID,1001.11,VALID,0,VALID,94.6973,VALID,0,VALID,24.3088,VALID,310,VALID,0.564844,
2008-04-19, 02:43:04,VALID,1001.1,VALID,0,VALID,94.7812,VALID,0,VALID,24.2681,VALID,309,VALID,0.651953,
2008-04-19, 02:44:04,VALID,1001.12,VALID,0.5,VALID,94.8194,VALID,0,VALID,24.2699,VALID,1,VALID,0.703906,
2008-04-19, 02:45:04,VALID,1001.08,VALID,0,VALID,94.9033,VALID,0,VALID,24.2504,VALID,316,VALID,0.205469,
2008-04-19, 02:46:04,VALID,1001.08,VALID,0,VALID,94.9414,VALID,0,VALID,24.231,VALID,286,VALID,0.530469,
2008-04-19, 02:47:04,VALID,1001.06,VALID,0,VALID,94.9719,VALID,0,VALID,24.1902,VALID,343,VALID,0.439063,
2008-04-19, 02:48:04,VALID,1001.03,VALID,0,VALID,94.9338,VALID,0,VALID,24.192,VALID,358,VALID,1.21836,
2008-04-19, 02:49:04,VALID,1000.99,VALID,0,VALID,94.9948,VALID,0,VALID,24.192,VALID,359,VALID,0.901953,
2008-04-19, 02:50:04,VALID,1001,VALID,0,VALID,95.0406,VALID,0,VALID,24.1531,VALID,354,VALID,0.619141,
2008-04-19, 02:51:04,VALID,1001.01,VALID,0,VALID,95.0024,VALID,0,VALID,24.1318,VALID,311,VALID,0.641797,
2008-04-19, 02:52:04,VALID,1000.98,VALID,0,VALID,95.094,VALID,0,VALID,24.1336,VALID,342,VALID,0.816406,
2008-04-19, 02:53:04,VALID,1000.97,VALID,0,VALID,95.1474,VALID,0,VALID,24.1336,VALID,312,VALID,0.663672,
2008-04-19, 02:54:04,VALID,1000.93,VALID,0,VALID,94.9872,VALID,0,VALID,24.0734,VALID,355,VALID,1.6707,
2008-04-19, 02:55:04,VALID,1000.95,VALID,0,VALID,95.0711,VALID,0,VALID,24.0947,VALID,338,VALID,0.298047,
2008-04-19, 02:56:04,VALID,1000.91,VALID,0,VALID,95.1245,VALID,0,VALID,24.0947,VALID,338,VALID,0.0910156,
2008-04-19, 02:57:04,VALID,1000.92,VALID,0,VALID,95.1703,VALID,0,VALID,24.0947,VALID,329,VALID,0.462109,
2008-04-19, 02:58:04,VALID,1000.91,VALID,0,VALID,95.1703,VALID,0,VALID,24.0947,VALID,280,VALID,0.467578,
2008-04-19, 02:59:04,VALID,1000.91,VALID,0,VALID,95.1398,VALID,0.100563,VALID,24.0539,VALID,295,VALID,0.698828,
2008-04-19, 03:00:04,VALID,1000.89,VALID,0,VALID,95.1245,VALID,0,VALID,24.0557,VALID,354,VALID,0.106641,
2008-04-19, 03:01:04,VALID,1000.92,VALID,0,VALID,95.0711,VALID,0,VALID,24.0363,VALID,352,VALID,0.178125,
2008-04-19, 03:02:04,VALID,1000.89,VALID,0,VALID,95.1016,VALID,0,VALID,24.0168,VALID,357,VALID,0.375781,
2008-04-19, 03:03:04,VALID,1000.86,VALID,0.5,VALID,95.0253,VALID,0,VALID,23.9973,VALID,303,VALID,0.409375,
2008-04-19, 03:04:04,VALID,1000.84,VALID,0,VALID,95.0024,VALID,0.100563,VALID,23.9566,VALID,352,VALID,0.778125,
2008-04-19, 03:05:04,VALID,1000.81,VALID,0,VALID,94.9262,VALID,0,VALID,23.9195,VALID,1,VALID,1.03711,
2008-04-19, 03:06:04,VALID,1000.8,VALID,0,VALID,94.9567,VALID,0,VALID,23.8982,VALID,351,VALID,0.271875,
2008-04-19, 03:07:04,VALID,1000.78,VALID,0,VALID,94.9719,VALID,0,VALID,23.9,VALID,358,VALID,0.480469,
2008-04-19, 03:08:04,VALID,1000.73,VALID,0,VALID,94.9109,VALID,0,VALID,23.8593,VALID,348,VALID,1.04766,
2008-04-19, 03:09:04,VALID,1000.72,VALID,0,VALID,95.0558,VALID,0,VALID,23.8398,VALID,5,VALID,0.436719,
2008-04-19, 03:10:04,VALID,1000.71,VALID,0,VALID,95.1245,VALID,0,VALID,23.8203,VALID,360,VALID,0.550781,
2008-04-19, 03:11:04,VALID,1000.68,VALID,0,VALID,95.1016,VALID,0.100563,VALID,23.8009,VALID,355,VALID,0.63125,
2008-04-19, 03:12:04,VALID,1000.68,VALID,0,VALID,95.1627,VALID,0.100563,VALID,23.8221,VALID,318,VALID,0.291797,
2008-04-19, 03:13:04,VALID,1000.69,VALID,0,VALID,95.2084,VALID,0,VALID,23.8027,VALID,318,VALID,0.0953125,
2008-04-19, 03:14:04,VALID,1000.67,VALID,0,VALID,95.2847,VALID,0,VALID,23.7814,VALID,289,VALID,0.242578,
2008-04-19, 03:15:04,VALID,1000.64,VALID,0,VALID,95.3229,VALID,0,VALID,23.7619,VALID,338,VALID,0.742578,
2008-04-19, 03:16:04,VALID,1000.61,VALID,0.5,VALID,95.3305,VALID,0,VALID,23.7619,VALID,307,VALID,0.119141,
2008-04-19, 03:17:04,VALID,1000.63,VALID,0,VALID,95.3534,VALID,0,VALID,23.7637,VALID,307,VALID,0.078125,
2008-04-19, 03:18:04,VALID,1000.6,VALID,0,VALID,95.2771,VALID,0,VALID,23.7637,VALID,289,VALID,0.296875,
2008-04-19, 03:19:04,VALID,1000.6,VALID,0,VALID,95.2389,VALID,0,VALID,23.7443,VALID,285,VALID,0.655078,
2008-04-19, 03:20:04,VALID,1000.64,VALID,0,VALID,95.1321,VALID,0,VALID,23.7053,VALID,284,VALID,1.05273,
2008-04-19, 03:21:04,VALID,1000.62,VALID,0,VALID,95.033,VALID,0,VALID,23.6452,VALID,286,VALID,1.08398,
2008-04-19, 03:22:04,VALID,1000.61,VALID,0,VALID,94.9414,VALID,0,VALID,23.6469,VALID,286,VALID,0.953516,
2008-04-19, 03:23:04,VALID,1000.6,VALID,0,VALID,95.033,VALID,0,VALID,23.6062,VALID,320,VALID,0.507031,
2008-04-19, 03:24:04,VALID,1000.61,VALID,0,VALID,95.1627,VALID,0.100563,VALID,23.6257,VALID,278,VALID,0.554297,
2008-04-19, 03:25:04,VALID,1000.6,VALID,0,VALID,95.2313,VALID,0,VALID,23.6469,VALID,273,VALID,0.199219,
2008-04-19, 03:26:04,VALID,1000.57,VALID,0,VALID,95.2466,VALID,0,VALID,23.6275,VALID,275,VALID,0.0636719,
2008-04-19, 03:27:04,VALID,1000.55,VALID,0,VALID,95.3076,VALID,0.100563,VALID,23.6469,VALID,275,VALID,0,
2008-04-19, 03:28:04,VALID,1000.57,VALID,0,VALID,95.3457,VALID,0,VALID,23.6257,VALID,275,VALID,0,
2008-04-19, 03:29:04,VALID,1000.56,VALID,0,VALID,95.2695,VALID,0.100563,VALID,23.5868,VALID,293,VALID,0.454688,
2008-04-19, 03:30:04,VALID,1000.56,VALID,0,VALID,95.2695,VALID,0.100563,VALID,23.5868,VALID,278,VALID,0.335156,
2008-04-19, 03:31:04,VALID,1000.53,VALID,0,VALID,95.3229,VALID,0.100563,VALID,23.6062,VALID,284,VALID,0.282813,
2008-04-19, 03:32:04,VALID,1000.53,VALID,0,VALID,95.3381,VALID,0.100563,VALID,23.5868,VALID,285,VALID,0.405859,
2008-04-19, 03:33:04,VALID,1000.52,VALID,0,VALID,95.3839,VALID,0.100563,VALID,23.608,VALID,286,VALID,0.222656,
2008-04-19, 03:34:04,VALID,1000.5,VALID,0,VALID,95.3991,VALID,0,VALID,23.5868,VALID,342,VALID,0.631641,
2008-04-19, 03:35:04,VALID,1000.48,VALID,0,VALID,95.4297,VALID,0,VALID,23.5868,VALID,326,VALID,0.222266,
2008-04-19, 03:36:04,VALID,1000.51,VALID,0,VALID,95.3534,VALID,0,VALID,23.5885,VALID,335,VALID,0.550391,
2008-04-19, 03:37:04,VALID,1000.47,VALID,0,VALID,95.422,VALID,0.100563,VALID,23.5673,VALID,349,VALID,0.741016,
2008-04-19, 03:38:04,VALID,1000.47,VALID,0,VALID,95.3534,VALID,0,VALID,23.5691,VALID,340,VALID,0.613281,
2008-04-19, 03:39:04,VALID,1000.45,VALID,0,VALID,95.4068,VALID,0.100563,VALID,23.5673,VALID,348,VALID,0.635547,
2008-04-19, 03:40:04,VALID,1000.43,VALID,0,VALID,95.4068,VALID,0.100563,VALID,23.5673,VALID,334,VALID,0.848828,
2008-04-19, 03:41:04,VALID,1000.41,VALID,0,VALID,95.422,VALID,0.100563,VALID,23.5478,VALID,357,VALID,1.19023,
2008-04-19, 03:42:04,VALID,1000.43,VALID,0,VALID,95.4373,VALID,0.100563,VALID,23.5673,VALID,7,VALID,0.246094,